Zurück zum Katalog

ELEVATION-1

AktivWissenschaftSSO
NORAD 62677·PAYLOAD·🇬🇧 United Kingdom

Gestartet Jan 14, 2025 von Vandenberg Space Force Base

Loading…

Nächste Überflüge (nächste 24 Stunden)

TLE

AktuellSource: Space-Track

Epoche: Sep 14, 2026, 11:33 UTC

1 62677U 25009BW  26257.48163781  .00025633  00000-0  51844-3 0  9998
2 62677  97.3753 344.0217 0002814   8.8427 351.2871 15.46437972150606

Verfolge ELEVATION-1 in Echtzeit mit AllMySat

Download on the App Store